Theta_e
300 299 298 298 298 298 298 298 298 297 296 297 297 297 296 296 296 297 298 299 300 300 300 301 301 302 303 304 305 306 306 306 306 307 308 309 309 310 311 311 312 312
298 297 296 295 294 294 295 295 295 295 295 295 294 295 295 295 296 296 297 298 298 299 299 300 300 301 301 302 303 303 304 304 304 307 307 307 307 308 308 309 310 310
296 296 295 294 292 292 292 293 293 292 292 293 293 294 294 294 294 295 296 296 296 297 298 299 299 300 301 301 302 301 301 301 301 304 304 305 305 306 306 307 308 308
295 295 294 294 293 292 292 291 291 292 292 291 291 292 292 293 294 294 294 294 295 295 297 298 298 298 299 300 300 299 299 299 300 301 301 301 302 303 303 304 305 306
294 294 294 294 293 293 293 292 291 290 290 290 291 291 291 291 292 292 292 293 293 294 295 296 297 297 298 298 299 298 298 298 298 299 299 299 299 300 301 301 301 302
293 293 293 293 293 293 292 291 291 290 290 289 290 290 290 291 291 291 291 291 292 292 293 295 295 296 297 297 297 296 296 296 296 297 297 297 297 298 299 299 299 298
291 291 291 291 291 291 291 290 290 291 290 290 290 289 290 290 290 290 290 290 291 291 292 294 294 294 294 294 294 294 294 294 294 295 295 296 296 296 297 297 297 297
289 290 290 290 290 290 290 290 290 290 290 290 289 289 290 289 289 290 290 290 291 291 292 293 293 292 292 292 292 292 292 293 293 293 293 294 295 294 295 296 296 296
288 288 288 288 289 289 288 288 289 289 289 289 289 289 290 290 290 290 290 290 290 291 292 291 291 291 291 291 291 291 291 291 292 291 291 291 292 292 293 294 295 295
287 287 287 287 287 287 287 288 288 288 288 289 289 289 289 289 290 290 290 290 291 291 291 290 290 290 291 291 291 291 291 291 291 291 291 291 291 291 292 293 293 293
286 286 286 286 285 286 286 286 287 287 288 288 288 288 289 289 289 290 290 290 290 290 290 290 290 291 291 291 291 291 291 291 290 291 291 291 291 291 291 292 292 292
285 285 285 285 285 285 285 285 285 286 286 287 287 288 288 289 288 289 289 289 289 289 289 289 290 291 290 290 291 291 291 291 291 291 291 291 291 291 292 292 292 292
284 284 284 284 284 284 284 284 284 285 285 285 286 287 287 287 287 288 288 288 289 289 289 289 289 290 290 290 290 291 291 290 290 291 291 291 291 291 291 291 291 292
283 283 283 283 283 283 283 284 284 284 284 285 285 285 286 286 286 286 287 288 288 288 288 289 289 290 290 290 290 290 290 290 290 290 290 290 291 291 291 290 291 291
281 282 282 282 282 282 282 282 283 283 284 284 284 285 285 285 286 286 286 287 287 287 288 288 288 289 289 289 290 290 290 290 290 290 290 289 290 290 290 290 290 290
281 281 281 282 282 282 282 282 282 282 283 283 283 284 284 284 285 285 286 286 286 287 287 287 287 288 287 288 288 289 289 290 290 290 289 289 289 289 289 289 289 290
280 280 281 280 281 281 281 281 281 282 282 282 282 282 282 283 284 284 284 285 285 286 285 286 286 287 287 288 288 287 288 289 288 288 289 288 288 288 287 287 288 289
280 280 279 279 280 280 280 280 281 281 281 281 281 281 282 282 282 283 283 284 284 285 285 285 285 285 286 286 286 286 286 288 288 288 288 288 288 287 287 287 287 288
279 279 278 278 278 279 279 280 280 281 280 280 280 281 281 281 281 282 282 283 283 283 284 284 284 285 285 285 285 285 285 287 287 287 287 286 286 286 286 286 286 287
277 278 277 277 278 278 278 279 279 279 279 280 280 280 280 280 280 281 281 281 282 282 283 283 283 284 284 284 284 284 285 285 286 286 285 285 285 285 286 285 286 286
275 276 276 276 277 277 278 277 277 277 278 278 279 279 280 280 280 280 280 280 281 281 281 282 282 283 283 283 284 284 283 284 285 285 284 285 285 285 285 285 285 285
274 274 275 275 275 276 276 276 276 276 276 277 278 279 279 279 279 280 279 279 280 281 281 281 282 282 282 282 283 283 282 284 284 284 283 284 284 284 284 284 285 284
273 273 273 274 275 275 275 275 275 275 275 276 277 277 278 278 278 278 279 279 279 280 280 281 281 281 281 282 282 283 283 283 283 283 283 282 283 283 283 284 284 283
272 272 272 272 273 273 273 273 274 275 274 275 275 276 276 277 278 278 279 279 279 279 280 280 280 280 281 281 282 282 282 282 282 282 281 281 282 282 283 283 283 281
271 271 271 271 271 271 271 271 272 273 273 274 274 276 276 277 277 278 278 279 279 279 278 279 279 280 280 281 280 280 281 281 281 281 280 280 281 281 281 282 282 282
269 269 270 269 270 270 271 271 272 272 272 273 273 275 275 276 276 277 277 278 278 279 279 279 278 279 279 279 279 279 280 280 280 279 279 279 279 279 280 281 281 282
Wind_Speed
6 5 6 7 7 6 6 6 5 8 8 6 7 5 5 4 4 4 4 4 5 5 5 5 5 4 4 5 6 5 6 6 6 5 6 5 5 6 5 5 5 4
8 8 7 8 8 7 7 7 7 7 7 7 6 6 5 5 4 4 4 4 5 5 5 5 5 5 5 5 5 5 6 6 6 5 5 7 5 5 6 6 5 5
10 10 9 9 8 9 10 8 8 7 7 7 7 6 5 5 5 4 4 4 5 5 5 5 6 6 6 5 5 6 6 6 6 6 5 6 6 5 6 5 5 6
10 10 10 11 10 10 8 9 8 8 7 7 6 5 5 4 5 5 5 5 5 5 5 6 6 6 6 6 5 5 6 6 6 5 5 5 6 6 6 6 6 6
11 10 10 9 9 9 9 9 9 7 8 7 6 5 5 5 5 5 5 4 5 5 5 6 6 6 5 5 5 5 5 5 6 5 5 6 6 6 6 6 7 7
9 9 9 9 9 8 8 9 9 8 8 7 6 5 5 5 5 5 5 5 5 5 5 6 6 6 6 6 6 6 6 6 6 6 6 6 6 6 5 6 6 7
9 9 9 8 9 9 10 9 8 7 7 7 6 6 5 5 5 5 5 6 6 6 6 6 7 7 6 6 7 7 6 6 7 7 7 6 5 7 6 6 6 6
9 8 8 8 10 9 9 8 7 7 7 7 7 6 6 6 6 5 5 5 6 7 7 7 8 8 7 6 7 7 7 5 6 7 7 7 6 7 7 5 6 6
9 8 8 9 10 8 9 8 7 7 5 6 6 6 5 5 5 6 6 6 6 7 7 8 8 7 7 7 7 7 7 6 6 7 7 7 7 7 7 6 6 6
9 8 9 8 9 7 9 7 7 6 6 6 6 5 6 6 6 5 6 6 7 7 8 7 7 7 7 7 7 7 6 7 6 6 6 6 6 6 7 6 7 6
9 8 9 9 9 8 8 8 7 6 6 6 6 6 6 6 5 5 6 6 6 7 7 7 7 7 7 7 6 6 6 6 6 5 5 5 6 6 6 6 7 7
8 8 9 9 9 8 8 7 6 6 6 6 6 6 6 6 6 5 6 7 7 7 7 7 7 7 7 6 6 6 5 5 5 5 5 5 5 5 5 5 6 6
8 8 7 7 7 7 6 6 7 6 6 6 5 6 6 6 6 7 6 6 7 7 7 7 7 6 6 6 5 5 5 5 5 5 4 4 4 5 5 5 5 5
7 7 7 7 7 6 6 6 6 6 6 6 6 6 6 6 6 6 6 6 6 7 7 6 6 6 6 5 5 4 4 4 4 4 4 4 4 4 5 5 5 5
7 6 6 7 7 7 7 7 7 6 6 5 5 6 5 5 5 6 7 7 7 7 7 7 7 6 5 4 4 4 3 3 3 4 4 4 4 4 4 5 5 5
7 7 6 6 7 7 6 6 6 5 5 6 6 5 5 5 5 5 6 7 7 7 7 7 7 6 5 7 7 4 3 2 2 3 3 3 3 4 4 4 5 4
7 7 7 7 6 6 6 6 5 5 5 5 5 5 5 4 5 6 6 6 6 7 7 7 6 5 7 8 8 7 3 2 2 2 2 2 3 3 3 4 4 5
7 7 8 7 7 6 5 5 4 5 5 5 5 5 4 4 5 5 5 5 5 6 7 7 6 7 7 7 7 7 6 2 2 2 2 2 3 3 3 3 4 5
7 7 7 7 6 6 5 4 5 5 5 5 6 4 4 5 5 5 5 5 5 6 6 6 6 6 7 7 7 7 5 2 2 2 2 3 3 3 3 3 4 4
7 7 7 7 6 6 6 6 7 7 6 5 4 4 5 5 6 6 5 5 4 5 5 5 6 6 7 7 7 7 5 3 3 2 2 2 2 3 3 4 4 5
7 7 7 6 6 6 7 8 8 7 7 6 5 5 5 5 5 5 5 4 4 4 4 5 6 7 7 7 7 6 5 3 3 2 1 1 1 2 3 3 4 4
7 7 7 7 6 7 7 8 7 7 7 6 5 5 5 4 4 5 5 5 4 4 4 5 6 8 8 8 7 6 3 2 2 1 1 1 1 2 3 2 2 3
8 7 7 7 7 7 7 7 7 6 6 5 5 5 5 5 4 4 4 4 4 4 4 4 5 7 8 8 8 8 3 2 2 1 1 1 2 2 2 2 2 3
8 8 8 8 8 8 8 7 7 6 6 6 5 5 5 5 4 3 4 4 5 5 4 3 5 7 9 9 10 11 6 3 2 2 2 2 2 2 2 2 2 2
7 8 8 8 8 7 7 7 7 6 6 5 5 4 4 4 4 3 4 4 5 5 6 5 4 6 10 11 12 12 8 4 3 2 3 3 4 3 3 2 2 1
7 7 7 7 7 6 6 5 4 4 5 4 4 4 4 4 4 4 4 4 4 5 5 5 5 5 9 13 13 12 12 6 4 4 5 6 5 5 5 3 2 2
Wind_Direction
117 89 94 91 90 85 86 98 103 116 118 118 115 114 107 105 92 87 81 80 72 66 57 56 46 43 32 30 25 44 49 47 43 31 34 36 45 39 32 22 16 360
114 110 107 103 102 102 103 103 94 88 95 103 106 110 102 97 79 77 79 79 75 70 66 62 56 51 45 46 39 46 48 42 46 25 42 39 39 42 38 27 25 6
122 118 114 113 111 107 108 102 97 93 92 87 91 94 96 88 89 76 68 75 76 70 64 62 63 55 51 51 52 55 50 45 40 32 40 42 35 35 31 24 26 18
125 122 120 117 116 115 113 108 103 104 103 96 86 82 86 89 93 89 81 66 73 77 74 71 68 62 57 57 62 61 56 51 40 38 46 46 35 33 29 24 21 22
122 120 118 117 116 115 114 107 101 96 97 101 103 100 97 95 92 87 84 78 74 72 72 71 70 68 64 60 60 65 54 52 40 39 50 51 42 38 34 32 28 28
108 111 112 114 118 116 106 102 103 104 105 102 102 98 96 94 93 88 83 83 77 77 76 75 75 72 66 62 62 58 51 46 36 39 49 49 44 40 38 32 33 34
114 110 107 105 103 99 100 99 101 104 103 107 102 93 96 94 93 91 90 87 83 78 77 78 77 69 60 60 60 58 51 46 39 40 43 46 40 39 38 33 32 31
108 103 103 103 101 97 98 100 100 100 107 104 100 96 92 90 88 84 85 85 82 77 78 78 74 68 64 65 64 60 55 44 38 36 38 37 34 31 26 26 21 26
106 101 101 100 98 98 98 97 96 97 97 101 100 100 93 89 89 89 86 81 77 74 76 72 70 69 65 67 65 63 61 57 49 45 42 37 36 30 24 19 19 21
99 103 100 96 94 91 94 92 94 92 92 92 94 93 91 82 82 85 85 81 80 76 74 72 70 69 70 65 63 62 61 59 54 51 47 44 40 33 26 24 20 18
100 98 97 92 91 91 90 90 88 89 84 86 92 89 90 92 85 82 84 83 83 84 82 77 75 73 71 69 65 63 63 62 60 56 51 47 42 37 30 26 22 19
99 95 93 95 96 93 92 89 89 87 90 84 88 94 91 86 87 83 82 86 85 86 84 83 80 75 71 69 65 63 63 61 59 59 56 54 48 38 34 32 24 20
88 84 88 89 88 93 95 93 90 90 91 91 88 90 91 90 87 91 87 92 93 91 88 85 81 77 74 70 68 65 63 60 56 55 53 54 41 37 34 31 28 24
77 78 78 78 81 82 83 84 85 84 83 84 84 83 84 87 91 94 94 94 96 95 90 87 82 77 74 69 65 65 63 62 58 48 51 48 42 38 31 27 23 24
80 73 74 77 79 80 78 76 75 74 76 77 77 80 79 84 90 97 100 100 98 100 97 87 79 69 66 62 69 65 62 64 61 51 47 44 38 34 26 22 16 17
78 76 76 74 72 74 75 77 77 75 73 75 77 78 81 83 87 89 93 100 104 101 98 88 80 77 54 56 51 45 60 65 67 59 46 40 34 25 21 18 9 4
75 75 76 72 72 75 75 80 81 83 82 81 82 82 83 80 86 86 86 91 97 102 99 90 82 78 65 68 60 43 30 65 70 66 55 40 34 20 14 5 358 354
71 77 77 75 75 75 79 80 87 90 91 89 88 83 76 78 78 80 81 85 91 96 95 91 86 75 69 57 46 38 18 22 67 56 41 34 28 19 13 0 351 346
68 76 78 75 70 72 73 75 78 76 71 70 68 65 71 71 69 72 70 70 83 92 93 90 83 70 67 56 42 32 29 20 65 37 34 34 21 12 4 356 346 342
59 62 67 67 68 68 68 64 62 58 53 54 57 58 66 68 64 64 61 58 61 77 86 82 77 63 57 51 40 33 42 39 60 41 38 25 14 360 354 349 347 341
56 56 56 55 56 60 62 59 55 51 46 39 38 39 43 50 53 59 53 50 52 61 79 77 67 55 47 42 37 39 48 36 54 30 28 12 358 3 345 345 340 341
47 53 52 49 49 56 59 56 53 48 43 32 37 44 45 48 51 54 53 51 47 50 72 78 65 47 40 37 33 38 42 34 38 10 13 345 357 3 342 329 338 341
36 43 47 45 43 47 50 48 46 46 45 28 41 41 47 41 42 48 48 52 50 49 57 71 62 40 35 32 30 23 13 26 8 5 351 340 342 335 307 310 317 345
36 37 41 42 41 39 36 35 34 37 35 24 34 29 39 34 23 45 53 55 52 51 36 55 58 40 34 33 30 25 13 11 359 4 352 350 334 329 316 302 303 270
37 39 40 40 43 40 37 33 29 27 21 20 24 29 34 37 22 32 43 56 54 58 42 43 49 42 33 31 28 24 15 6 9 1 354 354 335 329 320 311 314 257
40 43 44 43 41 43 42 42 37 36 30 30 32 30 29 31 28 31 35 46 49 49 47 39 34 40 33 25 23 21 19 15 14 9 358 345 340 333 325 327 327 329